H1 CPF 1 NER 2022 2 28 9 5591 glonass134 H2 1407501 9134 40315 2022 2 28 0 0 0 2022 3 3 23 45 0 900 1 1 0 0 0 H9 10 0 59638 0.00000 0 8919284.306 -13927083.770 -19381928.137 10 0 59638 900.00000 0 9080378.624 -11444691.209 -20879106.444 10 0 59638 1800.00000 0 9438929.812 -8822465.478 -21969586.907 10 0 59638 2700.00000 0 10003598.825 -6126886.716 -22632360.655 10 0 59638 3600.00000 0 10771100.568 -3425850.731 -22854779.807 10 0 59638 4500.00000 0 11726244.503 -786062.582 -22632784.833 10 0 59638 5400.00000 0 12842493.979 1729506.670 -21970962.926 10 0 59638 6300.00000 0 14083019.520 4063994.984 -20882437.902 10 0 59638 7200.00000 0 15402200.597 6168758.718 -19388595.316 10 0 59638 8100.00000 0 16747511.880 8005130.665 -17518649.544 10 0 59638 9000.00000 0 18061714.219 9545756.166 -15309062.337 10 0 59638 9900.00000 0 19285258.192 10775454.398 -12802825.010 10 0 59638 10800.00000 0 20358799.621 11691571.964 -10048618.682 10 0 59638 11700.00000 0 21225722.137 12303816.886 -7099869.029 10 0 59638 12600.00000 0 21834561.861 12633582.506 -4013713.847 10 0 59638 13500.00000 0 22141233.580 12712791.788 -849903.036 10 0 59638 14400.00000 0 22110966.185 12582312.044 2330348.320 10 0 59638 15300.00000 0 21719867.204 12290007.615 5465532.278 10 0 59638 16200.00000 0 20956051.660 11888512.649 8495024.109 10 0 59638 17100.00000 0 19820288.299 11432817.473 11360240.475 10 0 59638 18000.00000 0 18326136.095 10977769.423 14005758.413 10 0 59638 18900.00000 0 16499564.648 10575592.451 16380374.729 10 0 59638 19800.00000 0 14378073.165 10273528.884 18438086.516 10 0 59638 20700.00000 0 12009343.130 10111701.737 20138974.773 10 0 59638 21600.00000 0 9449478.707 10121286.979 21449974.935 10 0 59638 22500.00000 0 6760905.768 10323072.530 22345519.892 10 0 59638 23400.00000 0 4010014.536 10726465.117 22808043.207 10 0 59638 24300.00000 0 1264641.440 11328987.794 22828332.481 10 0 59638 25200.00000 0 -1408507.310 12116290.966 22405725.284 10 0 59638 26100.00000 0 -3946384.962 13062678.533 21548142.646 10 0 59638 27000.00000 0 -6291982.344 14132129.431 20271957.908 10 0 59638 27900.00000 0 -8396456.521 15279774.045 18601701.620 10 0 59638 28800.00000 0 -10220921.276 16453765.545 16569606.285 10 0 59638 29700.00000 0 -11737824.330 17597469.126 14214997.924 10 0 59638 30600.00000 0 -12931853.044 18651878.000 11583544.598 10 0 59638 31500.00000 0 -13800329.752 19558154.584 8726375.355 10 0 59638 32400.00000 0 -14353079.467 20260189.163 5699086.038 10 0 59638 33300.00000 0 -14611775.082 20707066.744 2560651.239 10 0 59638 34200.00000 0 -14608787.658 20855336.048 -627735.725 10 0 59638 35100.00000 0 -14385590.952 20670982.558 -3803871.058 10 0 59638 36000.00000 0 -13990788.785 20131019.900 -6905771.742 10 0 59638 36900.00000 0 -13477850.370 19224630.169 -9872903.798 10 0 59638 37800.00000 0 -12902651.578 17953803.278 -12647381.522 10 0 59638 38700.00000 0 -12320928.460 16333447.065 -15175112.462 10 0 59638 39600.00000 0 -11785753.045 14390962.948 -17406864.048 10 0 59638 40500.00000 0 -11345140.157 12165304.932 -19299229.983 10 0 59638 41400.00000 0 -11039887.908 9705561.943 -20815476.941 10 0 59638 42300.00000 0 -10901743.968 7069123.832 -21926254.994 10 0 59638 43200.00000 0 -10951975.221 4319508.729 -22610158.477 10 0 59638 44100.00000 0 -11200400.677 1523943.365 -22854127.408 10 0 59638 45000.00000 0 -11644927.411 -1249202.013 -22653682.945 10 0 59638 45900.00000 0 -12271607.664 -3933017.196 -22012993.939 10 0 59638 46800.00000 0 -13055213.137 -6464586.160 -20944774.889 10 0 59638 47700.00000 0 -13960300.711 -8787347.357 -19470018.893 10 0 59638 48600.00000 0 -14942723.371 -10853183.738 -17617572.181 10 0 59638 49500.00000 0 -15951521.743 -12624157.776 -15423559.614 10 0 59638 50400.00000 0 -16931116.040 -14073821.787 -12930673.204 10 0 59638 51300.00000 0 -17823706.081 -15188051.801 -10187337.948 10 0 59638 52200.00000 0 -18571778.759 -15965373.064 -7246771.346 10 0 59638 53100.00000 0 -19120618.131 -16416766.126 -4165954.826 10 0 59638 54000.00000 0 -19420713.546 -16564964.037 -1004536.602 10 0 59638 54900.00000 0 -19429965.602 -16443271.840 2176313.400 10 0 59638 55800.00000 0 -19115598.261 -16093959.105 5315075.075 10 0 59638 56700.00000 0 -18455697.625 -15566293.599 8351054.488 10 0 59638 57600.00000 0 -17440313.281 -14914298.691 11225543.370 10 0 59638 58500.00000 0 -16072076.070 -14194328.255 13882940.464 10 0 59638 59400.00000 0 -14366305.898 -13462560.128 16271814.253 10 0 59638 60300.00000 0 -12350603.949 -12772512.445 18345887.740 10 0 59638 61200.00000 0 -10063944.743 -12172686.117 20064927.189 10 0 59638 62100.00000 0 -7555303.773 -11704431.652 21395518.534 10 0 59638 63000.00000 0 -4881875.382 -11400129.350 22311716.969 10 0 59638 63900.00000 0 -2106952.463 -11281759.244 22795557.261 10 0 59638 64800.00000 0 702446.531 -11359921.325 22837414.676 10 0 59638 65700.00000 0 3478107.143 -11633348.249 22436208.767 10 0 59638 66600.00000 0 6153201.872 -12088932.534 21599444.896 10 0 59638 67500.00000 0 8664820.778 -12702269.011 20343091.124 10 0 59638 68400.00000 0 10956345.422 -13438691.794 18691291.033 10 0 59638 69300.00000 0 12979567.540 -14254764.137 16675916.110 10 0 59638 70200.00000 0 14696463.867 -15100160.145 14335964.503 10 0 59638 71100.00000 0 16080552.364 -15919860.216 11716816.163 10 0 59638 72000.00000 0 17117772.060 -16656568.081 8869357.656 10 0 59638 72900.00000 0 17806848.740 -17253247.128 5848992.980 10 0 59638 73800.00000 0 18159130.364 -17655667.822 2714559.537 10 0 59638 74700.00000 0 18197898.725 -17814856.817 -472828.973 10 0 59638 75600.00000 0 17957186.593 -17689342.032 -3650989.054 10 0 59638 76500.00000 0 17480151.005 -17247096.313 -6757898.189 10 0 59638 77400.00000 0 16817072.777 -16467095.095 -9732923.838 10 0 59638 78300.00000 0 16023068.646 -15340420.091 -12518024.715 10 0 59638 79200.00000 0 15155614.875 -13870860.701 -15058898.969 10 0 59638 80100.00000 0 14271989.225 -12074986.651 -17306055.149 10 0 59638 81000.00000 0 13426741.448 -9981688.310 -19215783.935 10 0 59638 81900.00000 0 12669300.729 -7631203.994 -20751011.038 10 0 59638 82800.00000 0 12041822.163 -5073675.635 -21882014.549 10 0 59638 83700.00000 0 11577363.426 -2367294.011 -22586993.292 10 0 59638 84600.00000 0 11298468.170 423888.135 -22852476.109 10 0 59638 85500.00000 0 11216214.776 3232383.070 -22673565.431 10 0 59639 0.00000 0 11329769.002 5989833.490 -22054012.077 10 0 59639 900.00000 0 11626457.571 8629611.172 -21006121.026 10 0 59639 1800.00000 0 12082357.435 11089337.716 -19550492.553 10 0 59639 2700.00000 0 12663374.234 13313228.790 -17715604.025 10 0 59639 3600.00000 0 13326762.836 15254162.448 -15537242.385 10 0 59639 4500.00000 0 14023024.789 16875389.155 -13057798.982 10 0 59639 5400.00000 0 14698102.078 18151814.605 -10325440.997 10 0 59639 6300.00000 0 15295774.635 19070804.544 -7393175.724 10 0 59639 7200.00000 0 15760160.899 19632480.525 -4317825.867 10 0 59639 8100.00000 0 16038216.746 19849496.627 -1158935.317 10 0 59639 9000.00000 0 16082128.491 19746308.434 2022374.012 10 0 59639 9900.00000 0 15851500.160 19357966.285 5164572.838 10 0 59639 10800.00000 0 15315243.910 18728484.227 8206901.045 10 0 59639 11700.00000 0 14453094.712 17908853.336 11090528.425 10 0 59639 12600.00000 0 13256685.901 16954782.429 13759678.304 10 0 59639 13500.00000 0 11730140.149 15924260.237 16162693.556 10 0 59639 14400.00000 0 9890150.159 14875040.258 18253025.596 10 0 59639 15300.00000 0 7765544.238 13862152.616 19990128.205 10 0 59639 16200.00000 0 5396352.826 12935546.164 21340239.783 10 0 59639 17100.00000 0 2832412.369 12137958.752 22277039.450 10 0 59639 18000.00000 0 131562.012 11503104.433 22782164.429 10 0 59639 18900.00000 0 -2642494.757 11054253.542 22845578.476 10 0 59639 19800.00000 0 -5422577.340 10803265.631 22465783.471 10 0 59639 20700.00000 0 -8140567.235 10750116.807 21649868.933 10 0 59639 21600.00000 0 -10729995.603 10882942.678 20413396.950 10 0 59639 22500.00000 0 -13128572.878 11178596.770 18780122.915 10 0 59639 23400.00000 0 -15280555.625 11603702.612 16781555.596 10 0 59639 24300.00000 0 -17138852.028 12116156.799 14456363.154 10 0 59639 25200.00000 0 -18666777.479 12667020.850 11849634.986 10 0 59639 26100.00000 0 -19839385.846 13202722.661 9012012.518 10 0 59639 27000.00000 0 -20644319.512 13667474.526 5998705.129 10 0 59639 27900.00000 0 -21082141.446 14005804.683 2868410.213 10 0 59639 28800.00000 0 -21166134.487 14165093.809 -317840.951 10 0 59639 29700.00000 0 -20921576.044 14098007.082 -3497887.922 10 0 59639 30600.00000 0 -20384519.028 13764716.411 -6609671.354 10 0 59639 31500.00000 0 -19600131.377 13134816.322 -9592462.734 10 0 59639 32400.00000 0 -18620665.744 12188850.024 -12388067.646 10 0 59639 33300.00000 0 -17503146.977 10919379.109 -14941977.118 10 0 59639 34200.00000 0 -16306877.135 9331550.219 -17204442.878 10 0 59639 35100.00000 0 -15090865.379 7443133.817 -19131454.369 10 0 59639 36000.00000 0 -13911292.934 5284033.040 -20685597.819 10 0 59639 36900.00000 0 -12819121.215 2895283.437 -21836780.480 10 0 59639 37800.00000 0 -11857944.488 327586.023 -22562806.447 10 0 59639 38700.00000 0 -11062177.233 -2360564.325 -22849793.823 10 0 59639 39600.00000 0 -10455651.646 -5105076.193 -22692426.393 10 0 59639 40500.00000 0 -10050682.683 -7838692.581 -22094036.530 10 0 59639 41400.00000 0 -9847637.950 -10493554.114 -21066519.319 10 0 59639 42300.00000 0 -9835028.248 -13003788.066 -19630081.211 10 0 59639 43200.00000 0 -9990112.654 -15308016.430 -17812829.485 10 0 59639 44100.00000 0 -10279990.481 -17351680.045 -15650211.687 10 0 59639 45000.00000 0 -10663132.424 -19089083.865 -13184316.811 10 0 59639 45900.00000 0 -11091285.051 -20485080.431 -10463052.354 10 0 59639 46800.00000 0 -11511667.665 -21516323.761 -7539213.426 10 0 59639 47700.00000 0 -11869368.729 -22172043.740 -4469461.934 10 0 59639 48600.00000 0 -12109841.098 -22454310.956 -1313235.290 10 0 59639 49500.00000 0 -12181391.508 -22377782.880 1868394.819 10 0 59639 50400.00000 0 -12037560.223 -21968943.504 5013892.246 10 0 59639 51300.00000 0 -11639291.492 -21264869.279 8062433.085 10 0 59639 52200.00000 0 -10956804.130 -20311573.444 10955067.647 10 0 59639 53100.00000 0 -9971083.984 -19161997.973 13635846.320 10 0 59639 54000.00000 0 -8674935.489 -17873736.615 16052888.810 10 0 59639 54900.00000 0 -7073547.564 -16506583.391 18159377.268 10 0 59639 55800.00000 0 -5184548.874 -15120007.955 19914455.105 10 0 59639 56700.00000 0 -3037548.321 -13770662.183 21284015.022 10 0 59639 57600.00000 0 -673177.476 -12510021.134 22241361.556 10 0 59639 58500.00000 0 1858327.760 -11382256.162 22767735.490 10 0 59639 59400.00000 0 4498950.218 -10422428.642 22852689.769 10 0 59639 60300.00000 0 7185046.325 -9655079.802 22494308.912 10 0 59639 61200.00000 0 9849745.730 -9093276.177 21699266.530 10 0 59639 62100.00000 0 12425498.183 -8738151.528 20482718.313 10 0 59639 63000.00000 0 14846663.351 -8578965.640 18868030.725 10 0 59639 63900.00000 0 17052036.563 -8593678.920 16886348.757 10 0 59639 64800.00000 0 18987205.472 -8750019.981 14576009.225 10 0 59639 65700.00000 0 20606638.803 -9007002.332 11981809.307 10 0 59639 66600.00000 0 21875418.809 -9316826.918 9154143.310 10 0 59639 67500.00000 0 22770543.645 -9627090.232 6148023.706 10 0 59639 68400.00000 0 23281743.639 -9883204.049 3022005.318 10 0 59639 69300.00000 0 23411775.929 -10030923.132 -162965.770 10 0 59639 70200.00000 0 23176184.285 -10018871.994 -3344755.089 10 0 59639 71100.00000 0 22602533.978 -9800961.396 -6461269.410 10 0 59639 72000.00000 0 21729154.299 -9338589.701 -9451687.136 10 0 59639 72900.00000 0 20603442.805 -8602533.341 -12257663.450 10 0 59639 73800.00000 0 19279804.303 -7574444.147 -14824484.780 10 0 59639 74700.00000 0 17817313.398 -6247888.397 -17102148.301 10 0 59639 75600.00000 0 16277201.106 -4628882.399 -19046344.215 10 0 59639 76500.00000 0 14720273.198 -2735901.286 -20619320.979 10 0 59639 77400.00000 0 13204370.430 -599360.494 -21790616.425 10 0 59639 78300.00000 0 11781978.272 1739408.071 -22537641.052 10 0 59639 79200.00000 0 10498086.711 4229641.758 -22846103.039 10 0 59639 80100.00000 0 9388389.353 6813031.929 -22710268.026 10 0 59639 81000.00000 0 8477896.052 9425928.483 -22133050.187 10 0 59639 81900.00000 0 7780015.243 12001771.886 -21125934.454 10 0 59639 82800.00000 0 7296142.133 14473651.329 -19708733.022 10 0 59639 83700.00000 0 7015767.378 16776883.000 -17909182.296 10 0 59639 84600.00000 0 6917099.055 18851502.138 -15762389.305 10 0 59639 85500.00000 0 6968169.485 20644566.413 -13310139.238 10 0 59640 0.00000 0 7128378.320 22112176.456 -10600078.393 10 0 59640 900.00000 0 7350405.671 23221132.082 -7684787.085 10 0 59640 1800.00000 0 7582413.620 23950155.330 -4620764.233 10 0 59640 2700.00000 0 7770443.348 24290634.063 -1467338.084 10 0 59640 3600.00000 0 7860906.882 24246854.850 1714472.817 10 0 59640 4500.00000 0 7803069.049 23835717.794 4863128.485 10 0 59640 5400.00000 0 7551415.790 23085946.136 7917744.296 10 0 59640 6300.00000 0 7067809.801 22036824.224 10819254.111 10 0 59640 7200.00000 0 6323343.351 20736516.617 13511538.297 10 0 59640 8100.00000 0 5299810.532 19240038.098 15942496.127 10 0 59640 9000.00000 0 3990736.758 17606958.480 18065042.997 10 0 59640 9900.00000 0 2401921.469 15898936.893 19838014.193 10 0 59640 10800.00000 0 551469.707 14177187.132 21226958.643 10 0 59640 11700.00000 0 -1530690.905 12499978.476 22204807.872 10 0 59640 12600.00000 0 -3803790.166 10920275.127 22752407.398 10 0 59640 13500.00000 0 -6217654.394 9483611.880 22858900.071 10 0 59640 14400.00000 0 -8714547.652 8226294.213 22521953.264 10 0 59640 15300.00000 0 -11231341.300 7173997.974 21747824.359 10 0 59640 16200.00000 0 -13701924.068 6340827.626 20551261.775 10 0 59640 17100.00000 0 -16059754.308 5728873.227 18955241.616 10 0 59640 18000.00000 0 -18240449.271 5328285.813 16990543.150 10 0 59640 18900.00000 0 -20184303.969 5117869.070 14695169.448 10 0 59640 19800.00000 0 -21838634.215 5066163.454 12113622.700 10 0 59640 20700.00000 0 -23159844.919 5132977.732 9296047.079 10 0 59640 21600.00000 0 -24115135.702 5271303.533 6297254.996 10 0 59640 22500.00000 0 -24683770.690 5429531.586 3175655.520 10 0 59640 23400.00000 0 -24857857.542 5553874.823 -7893.601 10 0 59640 24300.00000 0 -24642601.684 5590894.084 -3191286.900 10 0 59640 25200.00000 0 -24056024.189 5490017.234 -6312400.150 10 0 59640 26100.00000 0 -23128155.003 5205942.490 -9310321.380 10 0 59640 27000.00000 0 -21899735.948 4700821.562 -12126557.886 10 0 59640 27900.00000 0 -20420489.236 3946127.715 -14706193.778 10 0 59640 28800.00000 0 -18747025.979 2924127.675 -16998973.670 10 0 59640 29700.00000 0 -16940484.566 1628893.569 -18960290.169 10 0 59640 30600.00000 0 -15064000.016 66811.131 -20552055.200 10 0 59640 31500.00000 0 -13180112.295 -1743437.621 -21743437.982 10 0 59640 32400.00000 0 -11348223.446 -3771416.523 -22511455.744 10 0 59640 33300.00000 0 -9622210.611 -5975979.061 -22841406.616 10 0 59640 34200.00000 0 -8048294.692 -8306769.429 -22727137.531 10 0 59640 35100.00000 0 -6663252.815 -10706117.398 -22171143.511 10 0 59640 36000.00000 0 -5493047.603 -13111247.380 -21184498.036 10 0 59640 36900.00000 0 -4551928.347 -15456709.144 -19786617.456 10 0 59640 37800.00000 0 -3842038.950 -17676929.024 -18004865.486 10 0 59640 38700.00000 0 -3353546.185 -19708775.848 -15874006.651 10 0 59640 39600.00000 0 -3065280.149 -21494035.581 -13435520.237 10 0 59640 40500.00000 0 -2945857.487 -22981692.951 -10736788.672 10 0 59640 41400.00000 0 -2955238.188 -24129926.601 -7830176.287 10 0 59640 42300.00000 0 -3046649.014 -24907736.315 -4772016.393 10 0 59640 43200.00000 0 -3168791.723 -25296136.295 -1621525.951 10 0 59640 44100.00000 0 -3268242.820 -25288866.361 1560331.726 10 0 59640 45000.00000 0 -3291943.912 -24892592.791 4712014.882 10 0 59640 45900.00000 0 -3189678.259 -24126591.490 7772580.243 10 0 59640 46800.00000 0 -2916429.877 -23021927.255 10682847.267 10 0 59640 47700.00000 0 -2434526.530 -21620163.518 13386528.333 10 0 59640 48600.00000 0 -1715476.834 -19971655.972 15831304.240 10 0 59640 49500.00000 0 -741424.277 -18133500.376 17969825.468 10 0 59640 50400.00000 0 493843.398 -16167218.914 19760620.826 10 0 59640 51300.00000 0 1984372.930 -14136280.069 21168896.869 10 0 59640 52200.00000 0 3712035.998 -12103553.759 22167213.204 10 0 59640 53100.00000 0 5647034.073 -10128806.346 22736020.823 10 0 59640 54000.00000 0 7748899.353 -8266338.576 22864052.872 10 0 59640 54900.00000 0 9967953.008 -6562863.982 22548559.606 10 0 59640 55800.00000 0 12247162.825 -5055715.782 21795381.872 10 0 59640 56700.00000 0 14524325.595 -3771457.061 20618860.189 10 0 59640 57600.00000 0 16734485.504 -2724952.689 19041579.394 10 0 59640 58500.00000 0 18812489.222 -1918942.603 17093951.859 10 0 59640 59400.00000 0 20695571.896 -1344135.179 14813645.477 10 0 59640 60300.00000 0 22325866.030 -979817.665 12244865.786 10 0 59640 61200.00000 0 23652727.508 -794958.706 9437504.898 10 0 59640 62100.00000 0 24634780.021 -749756.756 6446172.990 10 0 59640 63000.00000 0 25241590.419 -797568.765 3329130.974 10 0 59640 63900.00000 0 25454902.708 -887136.785 147145.669 10 0 59640 64800.00000 0 25269377.099 -965016.773 -3037709.169 10 0 59640 65700.00000 0 24692801.660 -978104.729 -6163281.078 10 0 59640 66600.00000 0 23745766.801 -876150.768 -9168570.402 10 0 59640 67500.00000 0 22460816.219 -614152.040 -11994939.106 10 0 59640 68400.00000 0 20881110.511 -154520.609 -14587271.310 10 0 59640 69300.00000 0 19058660.831 531067.697 -16895061.136 10 0 59640 70200.00000 0 17052208.395 1460223.473 -18873405.396 10 0 59640 71100.00000 0 14924840.537 2638855.488 -20483881.019 10 0 59640 72000.00000 0 12741445.046 4060686.314 -21695289.881 10 0 59640 72900.00000 0 10566110.718 5707292.388 -22484256.973 10 0 59640 73800.00000 0 8459583.687 7548666.532 -22835671.147 10 0 59640 74700.00000 0 6476886.021 9544278.642 -22742961.134 10 0 59640 75600.00000 0 4665195.384 11644589.388 -22208203.015 10 0 59640 76500.00000 0 3062072.821 13792952.874 -21242058.719 10 0 59640 77400.00000 0 1694110.652 15927828.144 -19863548.317 10 0 59640 78300.00000 0 576054.275 17985206.975 -18099662.058 10 0 59640 79200.00000 0 -289568.382 19901156.818 -15984820.839 10 0 59640 80100.00000 0 -912297.193 21614373.253 -13560196.587 10 0 59640 81000.00000 0 -1313079.149 23068636.473 -10872906.312 10 0 59640 81900.00000 0 -1523126.864 24215070.545 -7975095.769 10 0 59640 82800.00000 0 -1582346.199 25014112.602 -4922930.505 10 0 59640 83700.00000 0 -1537400.499 25437111.320 -1775513.558 10 0 59640 84600.00000 0 -1439493.717 25467489.451 1406249.805 10 0 59640 85500.00000 0 -1341965.921 25101423.121 4560818.995 10 0 59641 0.00000 0 -1297802.234 24348010.632 7627194.796 10 0 59641 900.00000 0 -1357159.565 23228923.745 10546085.782 10 0 59641 1800.00000 0 -1565014.609 21777557.224 13261038.919 10 0 59641 2700.00000 0 -1959031.424 20037710.287 15719519.256 10 0 59641 3600.00000 0 -2567738.030 18061854.994 17873914.882 10 0 59641 4500.00000 0 -3409088.666 15909062.047 19682450.419 10 0 59641 5400.00000 0 -4489472.731 13642668.863 21109992.050 10 0 59641 6300.00000 0 -5803213.258 11327785.144 22128729.145 10 0 59641 7200.00000 0 -7332577.754 9028738.062 22718719.474 10 0 59641 8100.00000 0 -9048303.378 6806561.712 22868287.343 10 0 59641 9000.00000 0 -10910617.285 4716633.987 22574266.269 10 0 59641 9900.00000 0 -12870712.358 2806558.439 21842080.397 10 0 59641 10800.00000 0 -14872619.562 1114378.919 20685661.625 10 0 59641 11700.00000 0 -16855401.200 -332798.500 19127202.209 10 0 59641 12600.00000 0 -18755575.327 -1519718.261 17196745.755 10 0 59641 13500.00000 0 -20509671.183 -2443383.874 14931622.603 10 0 59641 14400.00000 0 -22056809.116 -3112944.351 12375738.820 10 0 59641 15300.00000 0 -23341196.452 -3549062.575 9578731.308 10 0 59641 16200.00000 0 -24314433.494 -3782791.800 6595004.646 10 0 59641 17100.00000 0 -24937531.157 -3854007.694 3482668.106 10 0 59641 18000.00000 0 -25182553.344 -3809462.743 302394.094 10 0 59641 18900.00000 0 -25033812.977 -3700546.499 -2883778.772 10 0 59641 19800.00000 0 -24488569.456 -3580848.276 -6013673.076 10 0 59641 20700.00000 0 -23557196.809 -3503627.712 -9026204.593 10 0 59641 21600.00000 0 -22262814.695 -3519302.870 -11862592.834 10 0 59641 22500.00000 0 -20640397.661 -3673064.800 -14467524.541 10 0 59641 23400.00000 0 -18735400.746 -4002721.901 -16790245.614 10 0 59641 24300.00000 0 -16601960.246 -4536867.266 -18785558.925 10 0 59641 25200.00000 0 -14300746.597 -5293447.921 -20414707.774 10 0 59641 26100.00000 0 -11896560.920 -6278797.173 -21646127.507 10 0 59641 27000.00000 0 -9455777.224 -7487171.157 -22456051.096 10 0 59641 27900.00000 0 -7043738.101 -8900808.818 -22828957.750 10 0 59641 28800.00000 0 -4722213.137 -10490512.165 -22757857.069 10 0 59641 29700.00000 0 -2547025.724 -12216721.549 -22244404.776 10 0 59641 30600.00000 0 -565946.116 -14031040.016 -21298849.411 10 0 59641 31500.00000 0 1183063.135 -15878142.017 -19939812.616 10 0 59641 32400.00000 0 2673178.640 -17697986.080 -18193908.772 10 0 59641 33300.00000 0 3889571.818 -19428238.689 -16095212.595 10 0 59641 34200.00000 0 4829755.994 -21006808.194 -13684585.991 10 0 59641 35100.00000 0 5503413.516 -22374383.402 -11008877.872 10 0 59641 36000.00000 0 5931712.969 -23476871.683 -8120012.736 10 0 59641 36900.00000 0 6146147.486 -24267635.810 -5073985.743 10 0 59641 37800.00000 0 6186944.844 -24709437.346 -1929783.479 10 0 59641 38700.00000 0 6101117.373 -24776006.659 1251749.256 10 0 59641 39600.00000 0 5940234.355 -24453175.074 4409075.344 10 0 59641 40500.00000 0 5758010.711 -23739522.781 7481142.320 10 0 59641 41400.00000 0 5607813.163 -22646515.922 10408548.763 10 0 59641 42300.00000 0 5540188.153 -21198127.208 13134678.618 10 0 59641 43200.00000 0 5600514.859 -19429955.454 15606782.805 10 0 59641 44100.00000 0 5826881.425 -17387879.768 17776988.403 10 0 59641 45000.00000 0 6248273.335 -15126303.110 19603216.947 10 0 59641 45900.00000 0 6883150.175 -12706056.586 21049995.054 10 0 59641 46800.00000 0 7738471.246 -10192049.643 22089142.312 10 0 59641 47700.00000 0 8809212.160 -7650761.910 22700323.381 10 0 59641 48600.00000 0 10078394.612 -5147678.978 22871453.494 10 0 59641 49500.00000 0 11517630.441 -2744776.994 22598948.864 10 0 59641 50400.00000 0 13088159.882 -498159.476 21887816.085 10 0 59641 51300.00000 0 14742343.290 1544056.169 20751577.316 10 0 59641 52200.00000 0 16425546.548 3343514.729 19212030.899 10 0 59641 53100.00000 0 18078343.299 4872987.521 17298850.154 10 0 59641 54000.00000 0 19638943.353 6117267.551 15049026.172 10 0 59641 54900.00000 0 21045746.218 7073557.256 12506163.694 10 0 59641 55800.00000 0 22239912.495 7751331.825 9719642.415 10 0 59641 56700.00000 0 23167844.294 8171683.293 6743659.153 10 0 59641 57600.00000 0 23783468.820 8366172.859 3636169.252 10 0 59641 58500.00000 0 24050226.996 8375240.138 457748.296 10 0 59641 59400.00000 0 23942681.168 8246237.483 -2729602.691 10 0 59641 60300.00000 0 23447671.966 8031174.015 -5863683.786 10 0 59641 61200.00000 0 22564973.698 7784266.827 -8883328.569 10 0 59641 62100.00000 0 21307419.362 7559405.431 -11729616.306 10 0 59641 63000.00000 0 19700489.235 7407639.279 -14347038.349 10 0 59641 63900.00000 0 17781380.392 7374797.131 -16684594.118 10 0 59641 64800.00000 0 15597596.772 7499341.065 -18696794.028 10 0 59641 65700.00000 0 13205120.018 7810547.484 -20344548.981 10 0 59641 66600.00000 0 10666239.030 8327092.893 -21595928.810 10 0 59641 67500.00000 0 8047130.371 9056104.520 -22426775.281 10 0 59641 68400.00000 0 5415291.613 9992715.563 -22821158.558 10 0 59641 69300.00000 0 2836935.433 11120143.059 -22771669.490 10 0 59641 70200.00000 0 374453.060 12410284.110 -22279543.557 10 0 59641 71100.00000 0 -1915948.001 13824804.267 -21354615.729 10 0 59641 72000.00000 0 -3986334.917 15316671.282 -20015108.699 10 0 59641 72900.00000 0 -5798784.166 16832068.966 -18287260.123 10 0 59641 73800.00000 0 -7326690.213 18312610.393 -16204797.331 10 0 59641 74700.00000 0 -8555596.492 19697757.447 -13808270.686 10 0 59641 75600.00000 0 -9483517.126 20927345.590 -11144259.197 10 0 59641 76500.00000 0 -10120738.897 21944108.676 -8264464.056 10 0 59641 77400.00000 0 -10489114.405 22696098.918 -5224707.795 10 0 59641 78300.00000 0 -10620878.287 23138901.778 -2083858.142 10 0 59641 79200.00000 0 -10557037.840 23237554.134 1097303.086 10 0 59641 80100.00000 0 -10345406.635 22968086.515 4257244.830 10 0 59641 81000.00000 0 -10038364.247 22318625.713 7334863.734 10 0 59641 81900.00000 0 -9690436.200 21290012.137 10270651.567 10 0 59641 82800.00000 0 -9355795.376 19895906.213 13007831.564 10 0 59641 83700.00000 0 -9085789.277 18162378.937 15493443.030 10 0 59641 84600.00000 0 -8926596.263 16127002.683 17679354.437 10 0 59641 85500.00000 0 -8917108.655 13837478.779 19523186.485 99